Year,Month,Day,Hour,Minute,Value (Times are PST for temperature in C)
2012,08,15,00,00,11.40
2012,08,15,00,01,11.40
2012,08,15,00,02,11.40
2012,08,15,00,03,11.30
2012,08,15,00,04,11.30
2012,08,15,00,05,11.30
2012,08,15,00,06,11.30
2012,08,15,00,07,11.30
2012,08,15,00,08,11.30
2012,08,15,00,09,11.30
2012,08,15,00,10,11.30
2012,08,15,00,11,11.30
2012,08,15,00,12,11.30
2012,08,15,00,13,11.30
2012,08,15,00,14,11.30
2012,08,15,00,15,11.30
2012,08,15,00,16,11.30
2012,08,15,00,17,11.30
2012,08,15,00,18,11.30
2012,08,15,00,19,11.30
2012,08,15,00,20,11.30
2012,08,15,00,21,11.30
2012,08,15,00,22,11.30
2012,08,15,00,23,11.30
2012,08,15,00,24,11.30
2012,08,15,00,25,11.30
2012,08,15,00,26,11.30
2012,08,15,00,27,11.30
2012,08,15,00,28,11.30
2012,08,15,00,29,11.30
2012,08,15,00,30,11.30
2012,08,15,00,31,11.20
2012,08,15,00,32,11.20
2012,08,15,00,33,11.20
2012,08,15,00,34,11.20
2012,08,15,00,35,11.20
2012,08,15,00,36,11.20
2012,08,15,00,37,11.20
2012,08,15,00,38,11.20
2012,08,15,00,39,11.20
2012,08,15,00,40,11.20
2012,08,15,00,41,11.20
2012,08,15,00,42,11.20
2012,08,15,00,43,11.20
2012,08,15,00,44,11.20
2012,08,15,00,45,11.20
2012,08,15,00,46,11.20
2012,08,15,00,47,11.20
2012,08,15,00,48,11.20
2012,08,15,00,49,11.20
2012,08,15,00,50,11.20
2012,08,15,00,51,11.20
2012,08,15,00,52,11.20
2012,08,15,00,53,11.20
2012,08,15,00,54,11.20
2012,08,15,00,55,11.20
2012,08,15,00,56,11.20
2012,08,15,00,57,11.30
2012,08,15,00,58,11.30
2012,08,15,00,59,11.30
2012,08,15,01,00,11.30
2012,08,15,01,01,11.30
2012,08,15,01,02,11.30
2012,08,15,01,03,11.30
2012,08,15,01,04,11.30
2012,08,15,01,05,11.30
2012,08,15,01,06,11.30
2012,08,15,01,07,11.30
2012,08,15,01,08,11.30
2012,08,15,01,09,11.40
2012,08,15,01,10,11.40
2012,08,15,01,11,11.40
2012,08,15,01,12,11.40
2012,08,15,01,13,11.40
2012,08,15,01,14,11.40
2012,08,15,01,15,11.40
2012,08,15,01,16,11.40
2012,08,15,01,17,11.30
2012,08,15,01,18,11.30
2012,08,15,01,19,11.30
2012,08,15,01,20,11.30
2012,08,15,01,21,11.30
2012,08,15,01,22,11.30
2012,08,15,01,23,11.30
2012,08,15,01,24,11.30
2012,08,15,01,25,11.30
2012,08,15,01,26,11.30
2012,08,15,01,27,11.30
2012,08,15,01,28,11.30
2012,08,15,01,29,11.30
2012,08,15,01,30,11.30
2012,08,15,01,31,11.30
2012,08,15,01,32,11.30
2012,08,15,01,33,11.30
2012,08,15,01,34,11.30
2012,08,15,01,35,11.30
2012,08,15,01,36,11.30
2012,08,15,01,37,11.30
2012,08,15,01,38,11.30
2012,08,15,01,39,11.30
2012,08,15,01,40,11.30
2012,08,15,01,41,11.30
2012,08,15,01,42,11.30
2012,08,15,01,43,11.30
2012,08,15,01,44,11.30
2012,08,15,01,45,11.30
2012,08,15,01,46,11.30
2012,08,15,01,47,11.30
2012,08,15,01,48,11.30
2012,08,15,01,49,11.20
2012,08,15,01,50,11.20
2012,08,15,01,51,11.20
2012,08,15,01,52,11.20
2012,08,15,01,53,11.20
2012,08,15,01,54,11.20
2012,08,15,01,55,11.20
2012,08,15,01,56,11.20
2012,08,15,01,57,11.20
2012,08,15,01,58,11.20
2012,08,15,01,59,11.20
2012,08,15,02,00,11.20
2012,08,15,02,01,11.20
2012,08,15,02,02,11.20
2012,08,15,02,03,11.20
2012,08,15,02,04,11.20
2012,08,15,02,05,11.20
2012,08,15,02,06,11.10
2012,08,15,02,07,11.10
2012,08,15,02,08,11.10
2012,08,15,02,09,11.10
2012,08,15,02,10,11.10
2012,08,15,02,11,11.10
2012,08,15,02,12,11.10
2012,08,15,02,13,11.10
2012,08,15,02,14,11.10
2012,08,15,02,15,11.10
2012,08,15,02,16,11.10
2012,08,15,02,17,11.10
2012,08,15,02,18,11.10
2012,08,15,02,19,11.10
2012,08,15,02,20,11.10
2012,08,15,02,21,11.00
2012,08,15,02,22,11.00
2012,08,15,02,23,11.00
2012,08,15,02,24,11.00
2012,08,15,02,25,11.00
2012,08,15,02,26,11.00
2012,08,15,02,27,11.00
2012,08,15,02,28,10.90
2012,08,15,02,29,11.00
2012,08,15,02,30,10.90
2012,08,15,02,31,10.90
2012,08,15,02,32,10.90
2012,08,15,02,33,10.90
2012,08,15,02,34,10.90
2012,08,15,02,35,10.90
2012,08,15,02,36,10.90
2012,08,15,02,37,10.90
2012,08,15,02,38,10.90
2012,08,15,02,39,10.90
2012,08,15,02,40,10.90
2012,08,15,02,41,10.90
2012,08,15,02,42,10.90
2012,08,15,02,43,10.90
2012,08,15,02,44,10.90
2012,08,15,02,45,10.90
2012,08,15,02,46,10.90
2012,08,15,02,47,10.90
2012,08,15,02,48,10.90
2012,08,15,02,49,10.90
2012,08,15,02,50,10.90
2012,08,15,02,51,10.90
2012,08,15,02,52,10.90
2012,08,15,02,53,10.90
2012,08,15,02,54,10.90
2012,08,15,02,55,10.90
2012,08,15,02,56,10.90
2012,08,15,02,57,10.90
2012,08,15,02,58,10.90
2012,08,15,02,59,10.90
2012,08,15,03,00,10.90
2012,08,15,03,01,10.90
2012,08,15,03,02,10.90
2012,08,15,03,03,10.90
2012,08,15,03,04,10.90
2012,08,15,03,05,10.90
2012,08,15,03,06,10.90
2012,08,15,03,07,10.90
2012,08,15,03,08,10.90
2012,08,15,03,09,10.90
2012,08,15,03,10,10.90
2012,08,15,03,11,10.90
2012,08,15,03,12,10.90
2012,08,15,03,13,10.90
2012,08,15,03,14,10.90
2012,08,15,03,15,10.90
2012,08,15,03,16,10.90
2012,08,15,03,17,10.90
2012,08,15,03,18,10.90
2012,08,15,03,19,10.90
2012,08,15,03,20,10.90
2012,08,15,03,21,10.90
2012,08,15,03,22,10.90
2012,08,15,03,23,10.90
2012,08,15,03,24,10.90
2012,08,15,03,25,10.90
2012,08,15,03,26,10.80
2012,08,15,03,27,10.80
2012,08,15,03,28,10.80
2012,08,15,03,29,10.80
2012,08,15,03,30,10.80
2012,08,15,03,31,10.80
2012,08,15,03,32,10.80
2012,08,15,03,33,10.80
2012,08,15,03,34,10.80
2012,08,15,03,35,10.80
2012,08,15,03,36,10.80
2012,08,15,03,37,10.80
2012,08,15,03,38,10.80
2012,08,15,03,39,10.80
2012,08,15,03,40,10.80
2012,08,15,03,41,10.80
2012,08,15,03,42,10.80
2012,08,15,03,43,10.80
2012,08,15,03,44,10.80
2012,08,15,03,45,10.80
2012,08,15,03,46,10.80
2012,08,15,03,47,10.80
2012,08,15,03,48,10.80
2012,08,15,03,49,10.70
2012,08,15,03,50,10.70
2012,08,15,03,51,10.70
2012,08,15,03,52,10.80
2012,08,15,03,53,10.80
2012,08,15,03,54,10.80
2012,08,15,03,55,10.80
2012,08,15,03,56,10.70
2012,08,15,03,57,10.70
2012,08,15,03,58,10.70
2012,08,15,03,59,10.70
2012,08,15,04,00,10.70
2012,08,15,04,01,10.70
2012,08,15,04,02,10.70
2012,08,15,04,03,10.70
2012,08,15,04,04,10.60
2012,08,15,04,05,10.60
2012,08,15,04,06,10.60
2012,08,15,04,07,10.60
2012,08,15,04,08,10.60
2012,08,15,04,09,10.60
2012,08,15,04,10,10.60
2012,08,15,04,11,10.60
2012,08,15,04,12,10.60
2012,08,15,04,13,10.60
2012,08,15,04,14,10.60
2012,08,15,04,15,10.60
2012,08,15,04,16,10.60
2012,08,15,04,17,10.60
2012,08,15,04,18,10.50
2012,08,15,04,19,10.50
2012,08,15,04,20,10.50
2012,08,15,04,21,10.50
2012,08,15,04,22,10.50
2012,08,15,04,23,10.50
2012,08,15,04,24,10.40
2012,08,15,04,25,10.40
2012,08,15,04,26,10.40
2012,08,15,04,27,10.40
2012,08,15,04,28,10.40
2012,08,15,04,29,10.40
2012,08,15,04,30,10.40
2012,08,15,04,31,10.40
2012,08,15,04,32,10.40
2012,08,15,04,33,10.50
2012,08,15,04,34,10.50
2012,08,15,04,35,10.50
2012,08,15,04,36,10.50
2012,08,15,04,37,10.50
2012,08,15,04,38,10.40
2012,08,15,04,39,10.40
2012,08,15,04,40,10.40
2012,08,15,04,41,10.40
2012,08,15,04,42,10.40
2012,08,15,04,43,10.40
2012,08,15,04,44,10.40
2012,08,15,04,45,10.40
2012,08,15,04,46,10.40
2012,08,15,04,47,10.50
2012,08,15,04,48,10.50
2012,08,15,04,49,10.50
2012,08,15,04,50,10.50
2012,08,15,04,51,10.50
2012,08,15,04,52,10.40
2012,08,15,04,53,10.50
2012,08,15,04,54,10.50
2012,08,15,04,55,10.50
2012,08,15,04,56,10.50
2012,08,15,04,57,10.50
2012,08,15,04,58,10.50
2012,08,15,04,59,10.50
2012,08,15,05,00,10.50
2012,08,15,05,01,10.50
2012,08,15,05,02,10.50
2012,08,15,05,03,10.50
2012,08,15,05,04,10.50
2012,08,15,05,05,10.50
2012,08,15,05,06,10.50
2012,08,15,05,07,10.50
2012,08,15,05,08,10.50
2012,08,15,05,09,10.40
2012,08,15,05,10,10.50
2012,08,15,05,11,10.50
2012,08,15,05,12,10.50
2012,08,15,05,13,10.50
2012,08,15,05,14,10.50
2012,08,15,05,15,10.50
2012,08,15,05,16,10.50
2012,08,15,05,17,10.50
2012,08,15,05,18,10.50
2012,08,15,05,19,10.50
2012,08,15,05,20,10.50
2012,08,15,05,21,10.50
2012,08,15,05,22,10.60
2012,08,15,05,23,10.60
2012,08,15,05,24,10.70
2012,08,15,05,25,10.90
2012,08,15,05,26,11.10
2012,08,15,05,27,11.20
2012,08,15,05,28,11.10
2012,08,15,05,29,11.00
2012,08,15,05,30,11.00
2012,08,15,05,31,11.00
2012,08,15,05,32,11.00
2012,08,15,05,33,10.90
2012,08,15,05,34,10.80
2012,08,15,05,35,10.80
2012,08,15,05,36,10.80
2012,08,15,05,37,10.70
2012,08,15,05,38,10.70
2012,08,15,05,39,10.70
2012,08,15,05,40,10.70
2012,08,15,05,41,10.70
2012,08,15,05,42,10.70
2012,08,15,05,43,10.80
2012,08,15,05,44,10.80
2012,08,15,05,45,10.90
2012,08,15,05,46,10.90
2012,08,15,05,47,11.00
2012,08,15,05,48,11.00
2012,08,15,05,49,11.10
2012,08,15,05,50,11.10
2012,08,15,05,51,11.10
2012,08,15,05,52,11.00
2012,08,15,05,53,10.90
2012,08,15,05,54,10.80
2012,08,15,05,55,10.80
2012,08,15,05,56,10.70
2012,08,15,05,57,10.70
2012,08,15,05,58,10.60
2012,08,15,05,59,10.60
2012,08,15,06,00,10.60
2012,08,15,06,01,10.50
2012,08,15,06,02,10.50
2012,08,15,06,03,10.50
2012,08,15,06,04,10.50
2012,08,15,06,05,10.50
2012,08,15,06,06,10.60
2012,08,15,06,07,10.60
2012,08,15,06,08,10.70
2012,08,15,06,09,10.60
2012,08,15,06,10,10.60
2012,08,15,06,11,10.60
2012,08,15,06,12,10.60
2012,08,15,06,13,10.50
2012,08,15,06,14,10.50
2012,08,15,06,15,10.50
2012,08,15,06,16,10.50
2012,08,15,06,17,10.50
2012,08,15,06,18,10.50
2012,08,15,06,19,10.50
2012,08,15,06,20,10.60
2012,08,15,06,21,10.60
2012,08,15,06,22,10.70
2012,08,15,06,23,10.80
2012,08,15,06,24,10.90
2012,08,15,06,25,10.90
2012,08,15,06,26,10.90
2012,08,15,06,27,10.90
2012,08,15,06,28,11.00
2012,08,15,06,29,11.10
2012,08,15,06,30,11.10
2012,08,15,06,31,11.10
2012,08,15,06,32,11.10
2012,08,15,06,33,11.10
2012,08,15,06,34,11.10
2012,08,15,06,35,11.10
2012,08,15,06,36,11.10
2012,08,15,06,37,11.20
2012,08,15,06,38,11.20
2012,08,15,06,39,11.20
2012,08,15,06,40,11.30
2012,08,15,06,41,11.40
2012,08,15,06,42,11.50
2012,08,15,06,43,11.60
2012,08,15,06,44,11.70
2012,08,15,06,45,11.70
2012,08,15,06,46,11.70
2012,08,15,06,47,11.70
2012,08,15,06,48,11.70
2012,08,15,06,49,11.80
2012,08,15,06,50,11.80
2012,08,15,06,51,11.80
2012,08,15,06,52,11.80
2012,08,15,06,53,11.90
2012,08,15,06,54,11.90
2012,08,15,06,55,12.00
2012,08,15,06,56,12.00
2012,08,15,06,57,12.10
2012,08,15,06,58,12.10
2012,08,15,06,59,12.10
2012,08,15,07,00,12.10
2012,08,15,07,01,12.10
2012,08,15,07,02,12.20
2012,08,15,07,03,12.20
2012,08,15,07,04,12.20
2012,08,15,07,05,12.30
2012,08,15,07,06,12.30
2012,08,15,07,07,12.20
2012,08,15,07,08,12.20
2012,08,15,07,09,12.20
2012,08,15,07,10,12.20
2012,08,15,07,11,12.20
2012,08,15,07,12,12.20
2012,08,15,07,13,12.10
2012,08,15,07,14,12.10
2012,08,15,07,15,12.10
2012,08,15,07,16,12.20
2012,08,15,07,17,12.30
2012,08,15,07,18,12.50
2012,08,15,07,19,12.60
2012,08,15,07,20,12.70
2012,08,15,07,21,12.70
2012,08,15,07,22,12.70
2012,08,15,07,23,12.80
2012,08,15,07,24,12.80
2012,08,15,07,25,12.80
2012,08,15,07,26,12.80
2012,08,15,07,27,12.90
2012,08,15,07,28,12.90
2012,08,15,07,29,13.00
2012,08,15,07,30,13.10
2012,08,15,07,31,13.10
2012,08,15,07,32,13.20
2012,08,15,07,33,13.20
2012,08,15,07,34,13.30
2012,08,15,07,35,13.40
2012,08,15,07,36,13.50
2012,08,15,07,37,13.50
2012,08,15,07,38,13.60
2012,08,15,07,39,13.70
2012,08,15,07,40,13.80
2012,08,15,07,41,13.90
2012,08,15,07,42,14.00
2012,08,15,07,43,14.00
2012,08,15,07,44,14.10
2012,08,15,07,45,14.20
2012,08,15,07,46,14.20
2012,08,15,07,47,14.30
2012,08,15,07,48,14.30
2012,08,15,07,49,14.30
2012,08,15,07,50,14.30
2012,08,15,07,51,14.30
2012,08,15,07,52,14.40
2012,08,15,07,53,14.40
2012,08,15,07,54,14.40
2012,08,15,07,55,14.50
2012,08,15,07,56,14.50
2012,08,15,07,57,14.60
2012,08,15,07,58,14.70
2012,08,15,07,59,14.80
2012,08,15,08,00,14.90
2012,08,15,08,01,15.00
2012,08,15,08,02,15.20
2012,08,15,08,03,15.30
2012,08,15,08,04,15.40
2012,08,15,08,05,15.50
2012,08,15,08,06,15.50
2012,08,15,08,07,15.60
2012,08,15,08,08,15.70
2012,08,15,08,09,15.80
2012,08,15,08,10,15.80
2012,08,15,08,11,16.00
2012,08,15,08,12,16.10
2012,08,15,08,13,16.20
2012,08,15,08,14,16.30
2012,08,15,08,15,16.40
2012,08,15,08,16,16.50
2012,08,15,08,17,16.60
2012,08,15,08,18,16.80
2012,08,15,08,19,16.90
2012,08,15,08,20,17.00
2012,08,15,08,21,17.10
2012,08,15,10,15,24.60
2012,08,15,10,16,24.50
2012,08,15,10,17,24.50
2012,08,15,10,18,24.50
2012,08,15,10,19,24.60
2012,08,15,10,20,24.60
2012,08,15,10,21,24.70
2012,08,15,10,22,24.80
2012,08,15,10,23,24.90
2012,08,15,10,24,25.00
2012,08,15,10,25,25.30
2012,08,15,10,26,25.40
2012,08,15,10,27,25.50
2012,08,15,10,28,25.50
2012,08,15,10,29,25.60
2012,08,15,10,30,25.70
2012,08,15,10,31,25.80
2012,08,15,10,32,25.90
2012,08,15,10,33,26.00
2012,08,15,10,34,26.10
2012,08,15,10,35,26.20
2012,08,15,10,36,26.30
2012,08,15,10,37,26.40
2012,08,15,10,38,26.50
2012,08,15,10,39,26.60
2012,08,15,10,40,26.70
2012,08,15,10,41,26.80
2012,08,15,10,42,26.90
2012,08,15,10,43,27.00
2012,08,15,10,44,27.10
2012,08,15,10,45,27.10
2012,08,15,10,46,27.10
2012,08,15,10,47,27.20
2012,08,15,10,48,27.20
2012,08,15,10,49,27.30
2012,08,15,10,50,27.30
2012,08,15,10,51,27.30
2012,08,15,10,52,27.30
2012,08,15,10,53,27.30
2012,08,15,10,54,27.30
2012,08,15,10,55,27.30
2012,08,15,10,56,27.30
2012,08,15,10,57,27.30
2012,08,15,10,58,27.30
2012,08,15,10,59,27.40
2012,08,15,11,00,27.40
2012,08,15,11,01,27.50
2012,08,15,11,02,27.60
2012,08,15,11,03,27.70
2012,08,15,11,04,27.70
2012,08,15,11,05,27.70
2012,08,15,11,06,27.70
2012,08,15,11,07,27.70
2012,08,15,11,08,27.70
2012,08,15,11,09,27.70
2012,08,15,11,10,27.70
2012,08,15,11,11,27.70
2012,08,15,11,12,27.70
2012,08,15,11,13,27.70
2012,08,15,11,14,27.70
2012,08,15,11,15,27.70
2012,08,15,11,16,27.60
2012,08,15,11,17,27.70
2012,08,15,11,18,27.70
2012,08,15,11,19,27.80
2012,08,15,11,20,27.80
2012,08,15,11,21,27.80
2012,08,15,11,22,27.80
2012,08,15,11,23,27.80
2012,08,15,11,24,27.80
2012,08,15,11,25,27.80
2012,08,15,11,26,27.80
2012,08,15,11,27,27.80
2012,08,15,11,28,27.80
2012,08,15,11,29,27.80
2012,08,15,11,30,27.70
2012,08,15,11,31,27.70
2012,08,15,11,32,27.70
2012,08,15,11,33,27.60
2012,08,15,11,34,27.60
2012,08,15,11,35,27.60
2012,08,15,11,36,27.70
2012,08,15,11,37,27.60
2012,08,15,11,38,27.60
2012,08,15,11,39,27.60
2012,08,15,11,40,27.60
2012,08,15,11,41,27.70
2012,08,15,11,42,27.70
2012,08,15,11,43,27.80
2012,08,15,11,44,27.80
2012,08,15,11,45,27.90
2012,08,15,11,46,27.90
2012,08,15,11,47,27.90
2012,08,15,11,48,27.90
2012,08,15,11,49,27.90
2012,08,15,11,50,27.90
2012,08,15,11,51,27.90
2012,08,15,11,52,27.90
2012,08,15,11,53,27.90
2012,08,15,11,54,28.00
2012,08,15,11,55,28.00
2012,08,15,11,56,28.00
2012,08,15,11,57,28.00
2012,08,15,11,58,28.10
2012,08,15,11,59,28.10
2012,08,15,12,00,28.00
2012,08,15,12,01,28.00
2012,08,15,12,02,28.00
2012,08,15,12,03,28.00
2012,08,15,12,04,28.00
2012,08,15,12,05,28.00
2012,08,15,12,06,28.10
2012,08,15,12,07,28.10
2012,08,15,12,08,28.20
2012,08,15,12,09,28.20
2012,08,15,12,10,28.20
2012,08,15,12,11,28.20
2012,08,15,12,12,28.20
2012,08,15,12,13,28.30
2012,08,15,12,14,28.30
2012,08,15,12,15,28.30
2012,08,15,12,16,28.40
2012,08,15,12,17,28.40
2012,08,15,12,18,28.50
2012,08,15,12,19,28.50
2012,08,15,12,20,28.60
2012,08,15,12,21,28.60
2012,08,15,12,22,28.60
2012,08,15,12,23,28.50
2012,08,15,12,24,28.50
2012,08,15,12,25,28.60
2012,08,15,12,26,28.50
2012,08,15,12,27,28.50
2012,08,15,12,28,28.50
2012,08,15,12,29,28.50
2012,08,15,12,30,28.50
2012,08,15,12,31,28.40
2012,08,15,12,32,28.40
2012,08,15,12,33,28.40
2012,08,15,12,34,28.40
2012,08,15,12,35,28.40
2012,08,15,12,36,28.40
2012,08,15,12,37,28.50
2012,08,15,12,38,28.60
2012,08,15,12,39,28.70
2012,08,15,12,40,28.80
2012,08,15,12,41,28.90
2012,08,15,12,42,29.00
2012,08,15,12,43,29.00
2012,08,15,12,44,29.00
2012,08,15,12,45,28.90
2012,08,15,12,46,28.90
2012,08,15,12,47,28.90
2012,08,15,12,48,28.90
2012,08,15,12,49,28.90
2012,08,15,12,50,28.90
2012,08,15,12,51,28.80
2012,08,15,12,52,28.80
2012,08,15,12,53,28.80
2012,08,15,12,54,28.80
2012,08,15,12,55,28.80
2012,08,15,12,56,28.80
2012,08,15,12,57,28.90
2012,08,15,12,58,29.00
2012,08,15,12,59,29.10
2012,08,15,13,00,29.10
2012,08,15,13,01,29.00
2012,08,15,13,02,29.00
2012,08,15,13,03,29.00
2012,08,15,13,04,29.00
2012,08,15,13,05,28.90
2012,08,15,13,06,28.90
2012,08,15,13,07,28.90
2012,08,15,13,08,29.00
2012,08,15,13,09,29.00
2012,08,15,13,10,29.10
2012,08,15,13,11,29.20
2012,08,15,13,12,29.10
2012,08,15,13,13,29.10
2012,08,15,13,14,29.00
2012,08,15,13,15,29.00
2012,08,15,13,16,29.00
2012,08,15,13,17,29.00
2012,08,15,13,18,29.00
2012,08,15,13,19,29.00
2012,08,15,13,20,29.00
2012,08,15,13,21,29.10
2012,08,15,13,22,29.20
2012,08,15,13,23,29.30
2012,08,15,13,24,29.40
2012,08,15,13,25,29.40
2012,08,15,13,26,29.40
2012,08,15,13,27,29.40
2012,08,15,13,28,29.50
2012,08,15,13,29,29.50
2012,08,15,13,30,29.50
2012,08,15,13,31,29.50
2012,08,15,13,32,29.50
2012,08,15,13,33,29.60
2012,08,15,13,34,29.70
2012,08,15,13,35,29.70
2012,08,15,13,36,29.80
2012,08,15,13,37,29.70
2012,08,15,13,38,29.70
2012,08,15,13,39,29.70
2012,08,15,13,40,29.60
2012,08,15,13,41,29.60
2012,08,15,13,42,29.60
2012,08,15,13,43,29.60
2012,08,15,13,44,29.60
2012,08,15,13,45,29.50
2012,08,15,13,46,29.50
2012,08,15,13,47,29.50
2012,08,15,13,48,29.40
2012,08,15,13,49,29.40
2012,08,15,13,50,29.40
2012,08,15,13,51,29.40
2012,08,15,13,52,29.30
2012,08,15,13,53,29.30
2012,08,15,13,54,29.30
2012,08,15,13,55,29.20
2012,08,15,13,56,29.10
2012,08,15,13,57,29.00
2012,08,15,13,58,28.90
2012,08,15,13,59,28.80
2012,08,15,14,00,28.70
2012,08,15,14,01,28.70
2012,08,15,14,02,28.80
2012,08,15,14,03,28.90
2012,08,15,14,04,29.00
2012,08,15,14,05,29.10
2012,08,15,14,06,29.20
2012,08,15,14,07,29.20
2012,08,15,14,08,29.10
2012,08,15,14,09,29.10
2012,08,15,14,10,29.10
2012,08,15,14,11,29.10
2012,08,15,14,12,29.10
2012,08,15,14,13,29.10
2012,08,15,14,14,29.10
2012,08,15,14,15,29.00
2012,08,15,14,16,28.80
2012,08,15,14,17,28.80
2012,08,15,14,18,28.80
2012,08,15,14,19,28.80
2012,08,15,14,20,28.80
2012,08,15,14,21,28.90
2012,08,15,14,22,29.10
2012,08,15,14,23,29.20
2012,08,15,14,24,29.30
2012,08,15,14,25,29.40
2012,08,15,14,26,29.20
2012,08,15,14,27,29.10
2012,08,15,14,28,29.10
2012,08,15,14,29,29.10
2012,08,15,14,30,29.10
2012,08,15,14,31,29.10
2012,08,15,14,32,29.10
2012,08,15,14,33,29.10
2012,08,15,14,34,29.20
2012,08,15,14,35,29.20
2012,08,15,14,36,29.20
2012,08,15,14,37,29.40
2012,08,15,14,38,29.50
2012,08,15,14,39,29.50
2012,08,15,14,40,29.60
2012,08,15,14,41,29.60
2012,08,15,14,42,29.60
2012,08,15,14,43,29.70
2012,08,15,14,44,29.80
2012,08,15,14,45,29.80
2012,08,15,14,46,29.80
2012,08,15,14,47,29.70
2012,08,15,14,48,29.60
2012,08,15,14,49,29.60
2012,08,15,14,50,29.50
2012,08,15,14,51,29.40
2012,08,15,14,52,29.30
2012,08,15,14,53,29.20
2012,08,15,14,54,29.20
2012,08,15,14,55,29.20
2012,08,15,14,56,29.10
2012,08,15,14,57,29.20
2012,08,15,14,58,29.20
2012,08,15,14,59,29.20
2012,08,15,15,00,29.20
2012,08,15,15,01,29.20
2012,08,15,15,02,29.20
2012,08,15,15,03,29.30
2012,08,15,15,04,29.50
2012,08,15,15,05,29.70
2012,08,15,15,06,29.80
2012,08,15,15,07,30.00
2012,08,15,15,08,30.20
2012,08,15,15,09,30.30
2012,08,15,15,10,30.40
2012,08,15,15,11,30.60
2012,08,15,15,12,30.60
2012,08,15,15,13,30.60
2012,08,15,15,14,30.60
2012,08,15,15,15,30.50
2012,08,15,15,16,30.50
2012,08,15,15,17,30.40
2012,08,15,15,18,30.40
2012,08,15,15,19,30.40
2012,08,15,15,20,30.30
2012,08,15,15,21,30.10
2012,08,15,15,22,29.90
2012,08,15,15,23,29.60
2012,08,15,15,24,29.30
2012,08,15,15,25,29.20
2012,08,15,15,26,29.10
2012,08,15,15,27,29.10
2012,08,15,15,28,29.20
2012,08,15,15,29,29.40
2012,08,15,15,30,29.60
2012,08,15,15,31,29.70
2012,08,15,15,32,29.90
2012,08,15,15,33,29.90
2012,08,15,15,34,30.00
2012,08,15,15,35,30.10
2012,08,15,15,36,30.30
2012,08,15,15,37,30.30
2012,08,15,15,38,30.10
2012,08,15,15,39,29.90
2012,08,15,15,40,29.60
2012,08,15,15,41,29.40
2012,08,15,15,42,29.20
2012,08,15,15,43,29.10
2012,08,15,15,44,29.10
2012,08,15,15,45,29.10
2012,08,15,15,46,29.20
2012,08,15,15,47,29.30
2012,08,15,15,48,29.30
2012,08,15,15,49,29.30
2012,08,15,15,50,29.40
2012,08,15,15,51,29.40
2012,08,15,15,52,29.30
2012,08,15,15,53,29.20
2012,08,15,15,54,29.00
2012,08,15,15,55,28.90
2012,08,15,15,56,28.90
2012,08,15,15,57,28.90
2012,08,15,15,58,28.80
2012,08,15,15,59,28.80
2012,08,15,16,00,28.80
2012,08,15,16,01,28.80
2012,08,15,16,02,28.60
2012,08,15,16,03,28.60
2012,08,15,16,04,28.50
2012,08,15,16,05,28.40
2012,08,15,16,06,28.40
2012,08,15,16,07,28.30
2012,08,15,16,08,28.20
2012,08,15,16,09,28.20
2012,08,15,16,10,28.30
2012,08,15,16,11,28.40
2012,08,15,16,12,28.40
2012,08,15,16,13,28.40
2012,08,15,16,14,28.40
2012,08,15,16,15,28.30
2012,08,15,16,16,28.30
2012,08,15,16,17,28.30
2012,08,15,16,18,28.20
2012,08,15,16,19,28.30
2012,08,15,16,20,28.30
2012,08,15,16,21,28.30
2012,08,15,16,22,28.30
2012,08,15,16,23,28.20
2012,08,15,16,24,28.10
2012,08,15,16,25,28.00
2012,08,15,16,26,28.00
2012,08,15,16,27,28.00
2012,08,15,16,28,28.10
2012,08,15,16,29,28.10
2012,08,15,16,30,28.10
2012,08,15,16,31,28.10
2012,08,15,16,32,28.10
2012,08,15,16,33,28.10
2012,08,15,16,34,28.20
2012,08,15,16,35,28.20
2012,08,15,16,36,28.20
2012,08,15,16,37,28.20
2012,08,15,16,38,28.20
2012,08,15,16,39,28.20
2012,08,15,16,40,28.20
2012,08,15,16,41,28.30
2012,08,15,16,42,28.40
2012,08,15,16,43,28.40
2012,08,15,16,44,28.40
2012,08,15,16,45,28.40
2012,08,15,16,46,28.40
2012,08,15,16,47,28.50
2012,08,15,16,48,28.50
2012,08,15,16,49,28.50
2012,08,15,16,50,28.40
2012,08,15,16,51,28.40
2012,08,15,16,52,28.40
2012,08,15,16,53,28.30
2012,08,15,16,54,28.30
2012,08,15,16,55,28.30
2012,08,15,16,56,28.30
2012,08,15,16,57,28.30
2012,08,15,16,58,28.30
2012,08,15,16,59,28.30
2012,08,15,17,00,28.30
2012,08,15,17,01,28.30
2012,08,15,17,02,28.20
2012,08,15,17,03,28.10
2012,08,15,17,04,28.10
2012,08,15,17,05,28.10
2012,08,15,17,06,28.10
2012,08,15,17,07,28.20
2012,08,15,17,08,28.20
2012,08,15,17,09,28.20
2012,08,15,17,10,28.20
2012,08,15,17,11,28.30
2012,08,15,17,12,28.30
2012,08,15,17,13,28.30
2012,08,15,17,14,28.30
2012,08,15,17,15,28.30
2012,08,15,17,16,28.30
2012,08,15,17,17,28.30
2012,08,15,17,18,28.40
2012,08,15,17,19,28.40
2012,08,15,17,20,28.40
2012,08,15,17,21,28.40
2012,08,15,17,22,28.30
2012,08,15,17,23,28.30
2012,08,15,17,24,28.20
2012,08,15,17,25,28.10
2012,08,15,17,26,28.00
2012,08,15,17,27,27.80
2012,08,15,17,28,27.80
2012,08,15,17,29,27.70
2012,08,15,17,30,27.70
2012,08,15,17,31,27.60
2012,08,15,17,32,27.50
2012,08,15,17,33,27.50
2012,08,15,17,34,27.40
2012,08,15,17,35,27.30
2012,08,15,17,36,27.30
2012,08,15,17,37,27.30
2012,08,15,17,38,27.30
2012,08,15,17,39,27.30
2012,08,15,17,40,27.30
2012,08,15,17,41,27.30
2012,08,15,17,42,27.30
2012,08,15,17,43,27.30
2012,08,15,17,44,27.30
2012,08,15,17,45,27.20
2012,08,15,17,46,27.20
2012,08,15,17,47,27.20
2012,08,15,17,48,27.20
2012,08,15,17,49,27.20
2012,08,15,17,50,27.30
2012,08,15,17,51,27.30
2012,08,15,17,52,27.30
2012,08,15,17,53,27.30
2012,08,15,17,54,27.30
2012,08,15,17,55,27.20
2012,08,15,17,56,27.20
2012,08,15,17,57,27.20
2012,08,15,17,58,27.30
2012,08,15,17,59,27.30
2012,08,15,18,00,27.40
2012,08,15,18,01,27.40
2012,08,15,18,02,27.40
2012,08,15,18,03,27.50
2012,08,15,18,04,27.50
2012,08,15,18,05,27.60
2012,08,15,18,06,27.60
2012,08,15,18,07,27.60
2012,08,15,18,08,27.60
2012,08,15,18,09,27.60
2012,08,15,18,10,27.50
2012,08,15,18,11,27.50
2012,08,15,18,12,27.50
2012,08,15,18,13,27.50
2012,08,15,18,14,27.50
2012,08,15,18,15,27.50
2012,08,15,18,16,27.60
2012,08,15,18,17,27.60
2012,08,15,18,18,27.70
2012,08,15,18,19,27.70
2012,08,15,18,20,27.70
2012,08,15,18,21,27.70
2012,08,15,18,22,27.70
2012,08,15,18,23,27.60
2012,08,15,18,24,27.50
2012,08,15,18,25,27.50
2012,08,15,18,26,27.40
2012,08,15,18,27,27.40
2012,08,15,18,28,27.30
2012,08,15,18,29,27.30
2012,08,15,18,30,27.30
2012,08,15,18,31,27.30
2012,08,15,18,32,27.30
2012,08,15,18,33,27.40
2012,08,15,18,34,27.40
2012,08,15,18,35,27.40
2012,08,15,18,36,27.30
2012,08,15,18,37,27.20
2012,08,15,18,38,27.10
2012,08,15,18,39,27.10
2012,08,15,18,40,27.00
2012,08,15,18,41,26.90
2012,08,15,18,42,26.80
2012,08,15,18,43,26.80
2012,08,15,18,44,26.80
2012,08,15,18,45,26.80
2012,08,15,18,46,26.80
2012,08,15,18,47,26.80
2012,08,15,18,48,26.80
2012,08,15,18,49,26.80
2012,08,15,18,50,26.80
2012,08,15,18,51,26.80
2012,08,15,18,52,26.80
2012,08,15,18,53,26.80
2012,08,15,18,54,26.70
2012,08,15,18,55,26.70
2012,08,15,18,56,26.70
2012,08,15,18,57,26.70
2012,08,15,18,58,26.70
2012,08,15,18,59,26.70
2012,08,15,19,00,26.60
2012,08,15,19,01,26.60
2012,08,15,19,02,26.60
2012,08,15,19,03,26.50
2012,08,15,19,04,26.50
2012,08,15,19,05,26.40
2012,08,15,19,06,26.40
2012,08,15,19,07,26.40
2012,08,15,19,08,26.40
2012,08,15,19,09,26.40
2012,08,15,19,10,26.40
2012,08,15,19,11,26.50
2012,08,15,19,12,26.50